Time,TemperatureF,DewpointF,PressureIn,WindDirection,WindDirectionDegrees,WindSpeedMPH,WindSpeedGustMPH,Humidity,HourlyPrecipIn,Conditions,Clouds,dailyrainin,SoftwareType,DateUTC
2013-04-08 00:00:00,50.5,29.3,29.49,NW,315,0.0,0.0,44,0.00,,,0.00,LWC V2.10 B1813,2013-04-08 06:00:00,
2013-04-08 00:05:00,49.3,28.7,29.49,NW,315,0.0,0.0,45,0.00,,,0.00,LWC V2.10 B1813,2013-04-08 06:05:00,
2013-04-08 00:10:00,48.7,28.2,29.48,NW,315,0.0,0.0,45,0.00,,,0.00,LWC V2.10 B1813,2013-04-08 06:10:00,
2013-04-08 00:15:00,47.5,27.6,29.48,NW,315,0.0,0.0,46,0.00,,,0.00,LWC V2.10 B1813,2013-04-08 06:15:00,
2013-04-08 00:20:00,46.0,26.8,29.48,WNW,292,0.0,0.0,47,0.00,,,0.00,LWC V2.10 B1813,2013-04-08 06:20:00,
2013-04-08 00:25:00,45.1,26.5,29.47,WNW,292,0.0,0.0,48,0.00,,,0.00,LWC V2.10 B1813,2013-04-08 06:25:00,
2013-04-08 00:30:00,44.8,26.8,29.47,WSW,247,0.0,0.0,49,0.00,,,0.00,LWC V2.10 B1813,2013-04-08 06:30:00,
2013-04-08 00:35:00,44.4,26.4,29.47,WSW,247,0.0,0.0,49,0.00,,,0.00,LWC V2.10 B1813,2013-04-08 06:35:00,
2013-04-08 00:40:00,43.9,26.0,29.47,WSW,247,0.0,0.0,49,0.00,,,0.00,LWC V2.10 B1813,2013-04-08 06:40:00,
2013-04-08 00:45:00,43.5,26.2,29.47,WSW,247,0.0,0.0,50,0.00,,,0.00,LWC V2.10 B1813,2013-04-08 06:45:00,
2013-04-08 00:50:00,43.5,26.2,29.47,WSW,247,0.0,0.0,50,0.00,,,0.00,LWC V2.10 B1813,2013-04-08 06:50:00,
2013-04-08 00:55:00,43.5,26.6,29.47,WSW,247,0.0,0.0,51,0.00,,,0.00,LWC V2.10 B1813,2013-04-08 06:55:00,
2013-04-08 01:00:00,43.5,26.6,29.47,WSW,247,0.0,0.0,51,0.00,,,0.00,LWC V2.10 B1813,2013-04-08 07:00:00,
2013-04-08 01:05:00,43.2,26.7,29.47,WSW,247,0.0,0.0,52,0.00,,,0.00,LWC V2.10 B1813,2013-04-08 07:05:00,
2013-04-08 01:10:00,42.6,26.6,29.47,WSW,247,0.0,0.0,53,0.00,,,0.00,LWC V2.10 B1813,2013-04-08 07:10:00,
2013-04-08 01:15:00,42.6,26.6,29.48,WSW,247,0.0,0.0,53,0.00,,,0.00,LWC V2.10 B1813,2013-04-08 07:15:00,
2013-04-08 01:20:00,42.6,26.6,29.48,West,270,0.0,0.0,53,0.00,,,0.00,LWC V2.10 B1813,2013-04-08 07:20:00,
2013-04-08 01:25:00,42.4,26.5,29.48,WSW,247,0.0,0.0,53,0.00,,,0.00,LWC V2.10 B1813,2013-04-08 07:25:00,
2013-04-08 01:30:00,42.4,26.9,29.47,WNW,292,0.0,0.0,54,0.00,,,0.00,LWC V2.10 B1813,2013-04-08 07:30:00,
2013-04-08 01:35:00,43.0,27.4,29.47,NNE,22,0.0,0.0,54,0.00,,,0.00,LWC V2.10 B1813,2013-04-08 07:35:00,
2013-04-08 01:40:00,43.0,27.4,29.47,NNE,22,0.0,0.0,54,0.00,,,0.00,LWC V2.10 B1813,2013-04-08 07:40:00,
2013-04-08 01:45:00,43.0,27.8,29.47,NNE,22,0.0,0.0,55,0.00,,,0.00,LWC V2.10 B1813,2013-04-08 07:45:00,
2013-04-08 01:50:00,42.6,27.5,29.48,NNE,22,0.0,0.0,55,0.00,,,0.00,LWC V2.10 B1813,2013-04-08 07:50:00,
2013-04-08 01:55:00,42.1,27.4,29.47,NNE,22,0.0,0.0,56,0.00,,,0.00,LWC V2.10 B1813,2013-04-08 07:55:00,
2013-04-08 02:00:00,41.9,27.3,29.46,NE,45,0.0,0.0,56,0.00,,,0.00,LWC V2.10 B1813,2013-04-08 08:00:00,
2013-04-08 02:05:00,41.4,27.2,29.46,NE,45,0.0,0.0,57,0.00,,,0.00,LWC V2.10 B1813,2013-04-08 08:05:00,
2013-04-08 02:10:00,41.2,27.0,29.45,NE,45,0.0,0.0,57,0.00,,,0.00,LWC V2.10 B1813,2013-04-08 08:10:00,
2013-04-08 02:15:00,40.8,27.1,29.45,West,270,0.0,0.0,58,0.00,,,0.00,LWC V2.10 B1813,2013-04-08 08:15:00,
2013-04-08 02:20:00,40.6,27.0,29.45,SW,225,0.0,0.0,58,0.00,,,0.00,LWC V2.10 B1813,2013-04-08 08:20:00,
2013-04-08 02:25:00,40.1,26.4,29.46,SW,225,0.0,0.0,58,0.00,,,0.00,LWC V2.10 B1813,2013-04-08 08:25:00,
2013-04-08 02:30:00,39.9,27.1,29.46,SW,225,0.0,0.0,60,0.00,,,0.00,LWC V2.10 B1813,2013-04-08 08:30:00,
2013-04-08 02:35:00,40.3,27.5,29.46,SW,225,0.0,0.0,60,0.00,,,0.00,LWC V2.10 B1813,2013-04-08 08:35:00,
2013-04-08 02:40:00,40.6,27.9,29.46,SW,225,0.0,0.0,60,0.00,,,0.00,LWC V2.10 B1813,2013-04-08 08:40:00,
2013-04-08 02:45:00,40.8,28.0,29.46,SW,225,0.0,0.0,60,0.00,,,0.00,LWC V2.10 B1813,2013-04-08 08:45:00,
2013-04-08 02:50:00,40.5,27.2,29.46,SW,225,0.0,0.0,59,0.00,,,0.00,LWC V2.10 B1813,2013-04-08 08:50:00,
2013-04-08 02:55:00,40.3,27.5,29.46,WSW,247,0.0,0.0,60,0.00,,,0.00,LWC V2.10 B1813,2013-04-08 08:55:00,
2013-04-08 03:00:00,39.9,27.1,29.46,WSW,247,0.0,0.0,60,0.00,,,0.00,LWC V2.10 B1813,2013-04-08 09:00:00,
2013-04-08 03:05:00,39.0,26.6,29.46,SW,225,0.0,0.0,61,0.00,,,0.00,LWC V2.10 B1813,2013-04-08 09:05:00,
2013-04-08 03:10:00,38.8,26.3,29.46,SW,225,0.0,0.0,61,0.00,,,0.00,LWC V2.10 B1813,2013-04-08 09:10:00,
2013-04-08 03:15:00,38.5,26.1,29.46,SW,225,0.0,0.0,61,0.00,,,0.00,LWC V2.10 B1813,2013-04-08 09:15:00,
2013-04-08 03:20:00,38.3,26.4,29.45,SW,225,0.0,0.0,62,0.00,,,0.00,LWC V2.10 B1813,2013-04-08 09:20:00,
2013-04-08 03:25:00,38.1,26.2,29.45,SW,225,0.0,0.0,62,0.00,,,0.00,LWC V2.10 B1813,2013-04-08 09:25:00,
2013-04-08 03:30:00,38.1,26.6,29.45,NW,315,0.0,0.0,63,0.00,,,0.00,LWC V2.10 B1813,2013-04-08 09:30:00,
2013-04-08 03:35:00,38.5,26.9,29.45,NW,315,0.0,0.0,63,0.00,,,0.00,LWC V2.10 B1813,2013-04-08 09:35:00,
2013-04-08 03:40:00,38.5,26.9,29.45,NW,315,0.0,0.0,63,0.00,,,0.00,LWC V2.10 B1813,2013-04-08 09:40:00,
2013-04-08 03:45:00,38.5,26.9,29.45,NW,315,0.0,0.0,63,0.00,,,0.00,LWC V2.10 B1813,2013-04-08 09:45:00,
2013-04-08 03:50:00,38.5,26.9,29.45,NW,315,0.0,0.0,63,0.00,,,0.00,LWC V2.10 B1813,2013-04-08 09:50:00,
2013-04-08 03:55:00,38.5,26.9,29.45,WSW,247,0.0,0.0,63,0.00,,,0.00,LWC V2.10 B1813,2013-04-08 09:55:00,
2013-04-08 04:01:00,38.8,27.2,29.46,WNW,292,0.0,0.0,63,0.00,,,0.00,LWC V2.10 B1813,2013-04-08 10:01:00,
2013-04-08 04:06:00,38.8,27.2,29.46,WNW,292,0.0,0.0,63,0.00,,,0.00,LWC V2.10 B1813,2013-04-08 10:06:00,
2013-04-08 04:11:00,39.4,28.1,29.45,WNW,292,0.0,0.0,64,0.00,,,0.00,LWC V2.10 B1813,2013-04-08 10:11:00,
2013-04-08 04:16:00,39.7,28.1,29.45,WNW,292,0.0,0.0,63,0.00,,,0.00,LWC V2.10 B1813,2013-04-08 10:16:00,
2013-04-08 04:21:00,39.7,27.7,29.45,WNW,292,0.0,0.0,62,0.00,,,0.00,LWC V2.10 B1813,2013-04-08 10:21:00,
2013-04-08 04:26:00,39.6,27.5,29.45,SW,225,0.0,0.0,62,0.00,,,0.00,LWC V2.10 B1813,2013-04-08 10:26:00,
2013-04-08 04:31:00,39.4,27.4,29.44,SW,225,0.0,0.0,62,0.00,,,0.00,LWC V2.10 B1813,2013-04-08 10:31:00,
2013-04-08 04:36:00,39.4,27.4,29.44,WSW,247,0.0,0.0,62,0.00,,,0.00,LWC V2.10 B1813,2013-04-08 10:36:00,
2013-04-08 04:41:00,39.0,27.0,29.44,WSW,247,0.0,0.0,62,0.00,,,0.00,LWC V2.10 B1813,2013-04-08 10:41:00,
2013-04-08 04:46:00,39.0,27.0,29.44,WSW,247,0.0,0.0,62,0.00,,,0.00,LWC V2.10 B1813,2013-04-08 10:46:00,
2013-04-08 04:51:00,38.8,26.9,29.44,WSW,247,0.0,0.0,62,0.00,,,0.00,LWC V2.10 B1813,2013-04-08 10:51:00,
2013-04-08 04:56:00,38.5,26.9,29.44,WSW,247,0.0,0.0,63,0.00,,,0.00,LWC V2.10 B1813,2013-04-08 10:56:00,
2013-04-08 05:01:00,38.3,26.7,29.44,WSW,247,0.0,0.0,63,0.00,,,0.00,LWC V2.10 B1813,2013-04-08 11:01:00,
2013-04-08 05:06:00,38.1,26.6,29.43,WSW,247,0.0,0.0,63,0.00,,,0.00,LWC V2.10 B1813,2013-04-08 11:06:00,
2013-04-08 05:11:00,37.9,26.4,29.43,WSW,247,0.0,0.0,63,0.00,,,0.00,LWC V2.10 B1813,2013-04-08 11:11:00,
2013-04-08 05:16:00,37.8,26.3,29.42,WSW,247,0.0,0.0,63,0.00,,,0.00,LWC V2.10 B1813,2013-04-08 11:16:00,
2013-04-08 05:21:00,37.6,26.1,29.42,WSW,247,0.0,0.0,63,0.00,,,0.00,LWC V2.10 B1813,2013-04-08 11:21:00,
2013-04-08 05:26:00,37.2,25.9,29.42,WSW,247,0.0,0.0,63,0.00,,,0.00,LWC V2.10 B1813,2013-04-08 11:26:00,
2013-04-08 05:31:00,37.4,25.9,29.42,WSW,247,0.0,0.0,63,0.00,,,0.00,LWC V2.10 B1813,2013-04-08 11:31:00,
2013-04-08 05:36:00,37.4,25.9,29.42,WSW,247,0.0,0.0,63,0.00,,,0.00,LWC V2.10 B1813,2013-04-08 11:36:00,
2013-04-08 05:41:00,37.6,26.1,29.42,WSW,247,0.0,0.0,63,0.00,,,0.00,LWC V2.10 B1813,2013-04-08 11:41:00,
2013-04-08 05:46:00,37.9,26.4,29.42,West,270,0.0,0.0,63,0.00,,,0.00,LWC V2.10 B1813,2013-04-08 11:46:00,
2013-04-08 05:51:00,37.9,26.0,29.42,West,270,0.0,0.0,62,0.00,,,0.00,LWC V2.10 B1813,2013-04-08 11:51:00,
2013-04-08 05:56:00,37.4,25.6,29.42,West,270,0.0,0.0,62,0.00,,,0.00,LWC V2.10 B1813,2013-04-08 11:56:00,
2013-04-08 06:01:00,37.2,25.4,29.42,West,270,0.0,0.0,62,0.00,,,0.00,LWC V2.10 B1813,2013-04-08 12:01:00,
2013-04-08 06:06:00,36.9,25.4,29.42,West,270,2.7,2.7,63,0.00,,,0.00,LWC V2.10 B1813,2013-04-08 12:06:00,
2013-04-08 06:11:00,37.2,25.8,29.42,West,270,0.0,0.0,63,0.00,,,0.00,LWC V2.10 B1813,2013-04-08 12:11:00,
2013-04-08 06:16:00,37.4,25.6,29.42,West,270,0.0,0.0,62,0.00,,,0.00,LWC V2.10 B1813,2013-04-08 12:16:00,
2013-04-08 06:21:00,37.2,25.4,29.42,SSW,202,0.0,0.0,62,0.00,,,0.00,LWC V2.10 B1813,2013-04-08 12:21:00,
2013-04-08 06:26:00,37.2,25.4,29.42,SW,225,0.0,0.0,62,0.00,,,0.00,LWC V2.10 B1813,2013-04-08 12:26:00,
2013-04-08 06:31:00,37.0,25.2,29.42,SW,225,0.0,0.0,62,0.00,,,0.00,LWC V2.10 B1813,2013-04-08 12:31:00,
2013-04-08 06:36:00,37.0,25.2,29.42,SW,225,0.0,0.0,62,0.00,,,0.00,LWC V2.10 B1813,2013-04-08 12:36:00,
2013-04-08 06:41:00,36.9,25.1,29.42,SW,225,0.0,0.0,62,0.00,,,0.00,LWC V2.10 B1813,2013-04-08 12:41:00,
2013-04-08 06:46:00,36.7,25.2,29.42,WSW,247,0.0,0.0,63,0.00,,,0.00,LWC V2.10 B1813,2013-04-08 12:46:00,
2013-04-08 06:51:00,36.7,25.2,29.42,WSW,247,0.0,0.0,63,0.00,,,0.00,LWC V2.10 B1813,2013-04-08 12:51:00,
2013-04-08 06:56:00,36.5,25.1,29.42,WSW,247,0.0,0.0,63,0.00,,,0.00,LWC V2.10 B1813,2013-04-08 12:56:00,
2013-04-08 07:02:00,36.5,25.3,29.42,WSW,247,0.0,0.0,64,0.00,,,0.00,LWC V2.10 B1813,2013-04-08 13:02:00,
2013-04-08 07:07:00,36.3,25.3,29.42,WSW,247,0.0,0.0,64,0.00,,,0.00,LWC V2.10 B1813,2013-04-08 13:07:00,
2013-04-08 07:12:00,36.3,25.3,29.43,WSW,247,0.0,0.0,64,0.00,,,0.00,LWC V2.10 B1813,2013-04-08 13:12:00,
2013-04-08 07:17:00,36.3,25.7,29.43,WSW,247,0.0,0.0,65,0.00,,,0.00,LWC V2.10 B1813,2013-04-08 13:17:00,
2013-04-08 07:22:00,36.5,25.8,29.43,WSW,247,0.0,0.0,65,0.00,,,0.00,LWC V2.10 B1813,2013-04-08 13:22:00,
2013-04-08 07:27:00,36.9,26.2,29.43,WSW,247,0.0,0.0,65,0.00,,,0.00,LWC V2.10 B1813,2013-04-08 13:27:00,
2013-04-08 07:32:00,37.4,26.5,29.43,WSW,247,0.0,0.0,65,0.00,,,0.00,LWC V2.10 B1813,2013-04-08 13:32:00,
2013-04-08 07:37:00,37.6,26.9,29.43,WSW,247,0.0,0.0,65,0.00,,,0.00,LWC V2.10 B1813,2013-04-08 13:37:00,
2013-04-08 07:42:00,38.3,27.5,29.43,WSW,247,0.0,0.0,65,0.00,,,0.00,LWC V2.10 B1813,2013-04-08 13:42:00,
2013-04-08 07:47:00,39.0,28.0,29.43,WSW,247,0.0,0.0,65,0.00,,,0.00,LWC V2.10 B1813,2013-04-08 13:47:00,
2013-04-08 07:52:00,39.9,29.0,29.43,SW,225,0.0,0.0,65,0.00,,,0.00,LWC V2.10 B1813,2013-04-08 13:52:00,
2013-04-08 07:57:00,40.8,29.9,29.42,SW,225,0.0,0.0,65,0.00,,,0.00,LWC V2.10 B1813,2013-04-08 13:57:00,
2013-04-08 08:02:00,41.5,30.2,29.42,SW,225,0.0,0.0,64,0.00,,,0.00,LWC V2.10 B1813,2013-04-08 14:02:00,
2013-04-08 08:07:00,42.1,30.0,29.42,SW,225,0.0,0.0,62,0.00,,,0.00,LWC V2.10 B1813,2013-04-08 14:07:00,
2013-04-08 08:12:00,42.6,30.1,29.42,SW,225,0.0,0.0,61,0.00,,,0.00,LWC V2.10 B1813,2013-04-08 14:12:00,
2013-04-08 08:17:00,43.9,30.9,29.42,SW,225,0.0,0.0,60,0.00,,,0.00,LWC V2.10 B1813,2013-04-08 14:17:00,
2013-04-08 08:22:00,44.4,31.0,29.42,SW,225,0.0,0.0,59,0.00,,,0.00,LWC V2.10 B1813,2013-04-08 14:22:00,
2013-04-08 08:27:00,45.5,31.1,29.42,SW,225,0.0,0.0,57,0.00,,,0.00,LWC V2.10 B1813,2013-04-08 14:27:00,
2013-04-08 08:32:00,46.9,31.1,29.42,SSW,202,0.0,0.0,54,0.00,,,0.00,LWC V2.10 B1813,2013-04-08 14:32:00,
2013-04-08 08:37:00,47.5,31.6,29.42,SSW,202,0.0,0.0,54,0.00,,,0.00,LWC V2.10 B1813,2013-04-08 14:37:00,
2013-04-08 08:42:00,48.0,31.6,29.42,SSE,157,0.0,0.0,53,0.00,,,0.00,LWC V2.10 B1813,2013-04-08 14:42:00,
2013-04-08 08:47:00,49.6,32.7,29.41,SE,135,0.0,0.0,52,0.00,,,0.00,LWC V2.10 B1813,2013-04-08 14:47:00,
2013-04-08 08:52:00,50.5,33.6,29.41,SE,135,0.0,0.0,52,0.00,,,0.00,LWC V2.10 B1813,2013-04-08 14:52:00,
2013-04-08 08:57:00,50.4,33.0,29.41,SSE,157,0.0,0.0,51,0.00,,,0.00,LWC V2.10 B1813,2013-04-08 14:57:00,
2013-04-08 09:02:00,50.2,32.8,29.41,SE,135,0.0,4.0,51,0.00,,,0.00,LWC V2.10 B1813,2013-04-08 15:02:00,
2013-04-08 09:07:00,51.1,33.6,29.41,SSE,157,3.8,3.8,51,0.00,,,0.00,LWC V2.10 B1813,2013-04-08 15:07:00,
2013-04-08 09:12:00,51.8,33.2,29.41,SE,135,0.0,0.0,49,0.00,,,0.00,LWC V2.10 B1813,2013-04-08 15:12:00,
2013-04-08 09:17:00,53.2,33.4,29.41,SSE,157,2.0,2.0,47,0.00,,,0.00,LWC V2.10 B1813,2013-04-08 15:17:00,
2013-04-08 09:22:00,54.3,33.8,29.41,SSE,157,0.0,0.0,46,0.00,,,0.00,LWC V2.10 B1813,2013-04-08 15:22:00,
2013-04-08 09:27:00,54.9,33.8,29.40,SE,135,0.0,0.0,45,0.00,,,0.00,LWC V2.10 B1813,2013-04-08 15:27:00,
2013-04-08 09:32:00,55.0,33.9,29.40,SSE,157,0.0,0.0,45,0.00,,,0.00,LWC V2.10 B1813,2013-04-08 15:32:00,
2013-04-08 09:37:00,55.8,34.6,29.40,SSE,157,1.6,1.6,45,0.00,,,0.00,LWC V2.10 B1813,2013-04-08 15:37:00,
2013-04-08 09:42:00,56.5,35.3,29.40,SSE,157,1.1,1.1,45,0.00,,,0.00,LWC V2.10 B1813,2013-04-08 15:42:00,
2013-04-08 09:47:00,56.8,35.0,29.39,SSE,157,0.0,7.6,44,0.00,,,0.00,LWC V2.10 B1813,2013-04-08 15:47:00,
2013-04-08 09:52:00,56.1,34.4,29.39,ENE,67,0.0,0.0,44,0.00,,,0.00,LWC V2.10 B1813,2013-04-08 15:52:00,
2013-04-08 09:57:00,56.8,35.0,29.39,South,180,6.9,6.9,44,0.00,,,0.00,LWC V2.10 B1813,2013-04-08 15:57:00,
2013-04-08 10:02:00,57.4,34.4,29.39,NE,45,4.2,4.2,42,0.00,,,0.00,LWC V2.10 B1813,2013-04-08 16:02:00,
2013-04-08 10:07:00,56.7,33.7,29.39,NE,45,0.0,0.0,42,0.00,,,0.00,LWC V2.10 B1813,2013-04-08 16:07:00,
2013-04-08 10:12:00,55.2,33.4,29.39,NE,45,0.0,3.6,44,0.00,,,0.00,LWC V2.10 B1813,2013-04-08 16:12:00,
2013-04-08 10:17:00,55.4,33.1,29.39,NE,45,0.0,0.0,43,0.00,,,0.00,LWC V2.10 B1813,2013-04-08 16:17:00,
2013-04-08 10:22:00,55.2,33.5,29.40,NE,45,2.0,2.0,44,0.00,,,0.00,LWC V2.10 B1813,2013-04-08 16:22:00,
2013-04-08 10:27:00,55.4,33.7,29.39,NE,45,0.0,0.0,44,0.00,,,0.00,LWC V2.10 B1813,2013-04-08 16:27:00,
2013-04-08 10:32:00,56.8,33.9,29.39,NE,45,0.0,2.0,42,0.00,,,0.00,LWC V2.10 B1813,2013-04-08 16:32:00,
2013-04-08 10:37:00,57.4,34.4,29.39,NNE,22,0.0,0.0,42,0.00,,,0.00,LWC V2.10 B1813,2013-04-08 16:37:00,
2013-04-08 10:42:00,57.2,34.6,29.39,NE,45,3.8,3.8,43,0.00,,,0.00,LWC V2.10 B1813,2013-04-08 16:42:00,
2013-04-08 10:47:00,57.0,34.1,29.39,North,0,3.6,3.6,42,0.00,,,0.00,LWC V2.10 B1813,2013-04-08 16:47:00,
2013-04-08 10:52:00,57.2,34.2,29.39,ENE,67,2.0,2.0,42,0.00,,,0.00,LWC V2.10 B1813,2013-04-08 16:52:00,
2013-04-08 10:57:00,57.7,34.1,29.39,NNE,22,2.7,2.7,41,0.00,,,0.00,LWC V2.10 B1813,2013-04-08 16:57:00,
2013-04-08 11:02:00,57.6,34.0,29.38,NNE,22,0.0,4.0,41,0.00,,,0.00,LWC V2.10 B1813,2013-04-08 17:02:00,
2013-04-08 11:07:00,57.9,34.3,29.38,NE,45,6.0,6.0,41,0.00,,,0.00,LWC V2.10 B1813,2013-04-08 17:07:00,
2013-04-08 11:12:00,58.8,35.7,29.38,SSE,157,2.9,2.9,42,0.00,,,0.00,LWC V2.10 B1813,2013-04-08 17:12:00,
2013-04-08 11:17:00,59.7,35.9,29.38,NE,45,0.0,0.0,41,0.00,,,0.00,LWC V2.10 B1813,2013-04-08 17:17:00,
2013-04-08 11:22:00,60.6,36.2,29.37,NE,45,0.7,0.7,40,0.00,,,0.00,LWC V2.10 B1813,2013-04-08 17:22:00,
2013-04-08 11:27:00,60.6,36.2,29.37,NNE,22,4.2,4.2,40,0.00,,,0.00,LWC V2.10 B1813,2013-04-08 17:27:00,
2013-04-08 11:32:00,60.6,35.4,29.37,NE,45,2.9,2.9,39,0.00,,,0.00,LWC V2.10 B1813,2013-04-08 17:32:00,
2013-04-08 11:38:00,60.1,34.2,29.36,North,0,4.5,4.5,38,0.00,,,0.00,LWC V2.10 B1813,2013-04-08 17:38:00,
2013-04-08 11:43:00,60.4,34.6,29.36,NE,45,4.9,6.5,38,0.00,,,0.00,LWC V2.10 B1813,2013-04-08 17:43:00,
2013-04-08 11:48:00,60.3,34.4,29.37,ESE,112,0.0,0.0,38,0.00,,,0.00,LWC V2.10 B1813,2013-04-08 17:48:00,
2013-04-08 11:53:00,60.4,33.8,29.36,North,0,7.4,7.4,37,0.00,,,0.00,LWC V2.10 B1813,2013-04-08 17:53:00,
2013-04-08 11:58:00,60.1,33.5,29.36,NE,45,3.1,3.8,37,0.00,,,0.00,LWC V2.10 B1813,2013-04-08 17:58:00,
2013-04-08 12:03:00,60.6,34.7,29.36,ESE,112,0.0,0.0,38,0.00,,,0.00,LWC V2.10 B1813,2013-04-08 18:03:00,
2013-04-08 12:08:00,61.5,35.2,29.36,ENE,67,0.0,0.0,38,0.00,,,0.00,LWC V2.10 B1813,2013-04-08 18:08:00,
2013-04-08 12:13:00,62.1,35.3,29.35,ENE,67,0.0,2.5,37,0.00,,,0.00,LWC V2.10 B1813,2013-04-08 18:13:00,
2013-04-08 12:18:00,62.2,35.5,29.36,NNE,22,7.6,7.6,37,0.00,,,0.00,LWC V2.10 B1813,2013-04-08 18:18:00,
2013-04-08 12:23:00,61.5,35.5,29.35,NE,45,3.8,4.2,38,0.00,,,0.00,LWC V2.10 B1813,2013-04-08 18:23:00,
2013-04-08 12:28:00,62.4,36.3,29.35,NE,45,0.0,7.4,38,0.00,,,0.00,LWC V2.10 B1813,2013-04-08 18:28:00,
2013-04-08 12:33:00,63.7,36.8,29.35,NE,45,0.0,0.0,37,0.00,,,0.00,LWC V2.10 B1813,2013-04-08 18:33:00,
2013-04-08 12:38:00,64.0,35.6,29.35,ESE,112,0.0,0.0,35,0.00,,,0.00,LWC V2.10 B1813,2013-04-08 18:38:00,
2013-04-08 12:43:00,63.1,34.8,29.35,NE,45,0.0,2.7,35,0.00,,,0.00,LWC V2.10 B1813,2013-04-08 18:43:00,
2013-04-08 12:48:00,63.0,34.7,29.34,NE,45,0.0,0.0,35,0.00,,,0.00,LWC V2.10 B1813,2013-04-08 18:48:00,
2013-04-08 12:53:00,63.0,35.4,29.34,North,0,7.6,7.6,36,0.00,,,0.00,LWC V2.10 B1813,2013-04-08 18:53:00,
2013-04-08 12:58:00,62.8,34.5,29.33,NE,45,0.0,0.0,35,0.00,,,0.00,LWC V2.10 B1813,2013-04-08 18:58:00,
2013-04-08 13:03:00,62.4,34.9,29.33,NE,45,0.0,0.0,36,0.00,,,0.00,LWC V2.10 B1813,2013-04-08 19:03:00,
2013-04-08 13:08:00,62.4,35.2,29.33,NE,45,0.0,0.0,36,0.00,,,0.00,LWC V2.10 B1813,2013-04-08 19:08:00,
2013-04-08 13:13:00,63.7,35.3,29.33,NE,45,0.0,0.0,35,0.00,,,0.00,LWC V2.10 B1813,2013-04-08 19:13:00,
2013-04-08 13:18:00,64.6,36.1,29.32,North,0,2.7,2.7,35,0.00,,,0.00,LWC V2.10 B1813,2013-04-08 19:18:00,
2013-04-08 13:23:00,64.0,34.9,29.32,NNE,22,4.5,4.5,34,0.00,,,0.00,LWC V2.10 B1813,2013-04-08 19:23:00,
2013-04-08 13:28:00,63.3,35.0,29.31,NE,45,2.2,2.2,35,0.00,,,0.00,LWC V2.10 B1813,2013-04-08 19:28:00,
2013-04-08 13:33:00,64.2,36.5,29.31,North,0,4.9,4.9,36,0.00,,,0.00,LWC V2.10 B1813,2013-04-08 19:33:00,
2013-04-08 13:38:00,64.6,36.0,29.31,NE,45,0.0,1.8,35,0.00,,,0.00,LWC V2.10 B1813,2013-04-08 19:38:00,
2013-04-08 13:43:00,64.0,34.9,29.31,NNE,22,0.0,0.0,34,0.00,,,0.00,LWC V2.10 B1813,2013-04-08 19:43:00,
2013-04-08 13:48:00,62.8,34.5,29.30,NE,45,0.0,0.0,35,0.00,,,0.00,LWC V2.10 B1813,2013-04-08 19:48:00,
2013-04-08 13:53:00,62.4,33.5,29.30,NNE,22,0.0,0.0,34,0.00,,,0.00,LWC V2.10 B1813,2013-04-08 19:53:00,
2013-04-08 13:58:00,61.5,32.6,29.30,NE,45,0.0,0.0,34,0.00,,,0.00,LWC V2.10 B1813,2013-04-08 19:58:00,
2013-04-08 14:03:00,61.3,33.2,29.30,NE,45,0.0,0.0,35,0.00,,,0.00,LWC V2.10 B1813,2013-04-08 20:03:00,
2013-04-08 14:08:00,61.5,33.4,29.29,North,0,0.0,0.0,35,0.00,,,0.00,LWC V2.10 B1813,2013-04-08 20:08:00,
2013-04-08 14:13:00,61.5,33.4,29.29,NE,45,0.0,0.0,35,0.00,,,0.00,LWC V2.10 B1813,2013-04-08 20:13:00,
2013-04-08 14:18:00,61.7,33.5,29.29,NNE,22,0.0,0.0,35,0.00,,,0.00,LWC V2.10 B1813,2013-04-08 20:18:00,
2013-04-08 14:23:00,61.7,33.5,29.29,NE,45,0.0,0.0,35,0.00,,,0.00,LWC V2.10 B1813,2013-04-08 20:23:00,
2013-04-08 14:28:00,61.7,33.5,29.29,ENE,67,5.4,5.4,35,0.00,,,0.00,LWC V2.10 B1813,2013-04-08 20:28:00,
2013-04-08 14:33:00,61.5,33.4,29.29,NE,45,0.0,0.0,35,0.00,,,0.00,LWC V2.10 B1813,2013-04-08 20:33:00,
2013-04-08 14:38:00,61.3,33.2,29.29,NE,45,0.0,0.0,35,0.00,,,0.00,LWC V2.10 B1813,2013-04-08 20:38:00,
2013-04-08 14:43:00,61.5,34.1,29.29,South,180,0.0,0.0,36,0.00,,,0.00,LWC V2.10 B1813,2013-04-08 20:43:00,
2013-04-08 14:48:00,62.4,34.9,29.29,South,180,0.0,0.0,36,0.00,,,0.00,LWC V2.10 B1813,2013-04-08 20:48:00,
2013-04-08 14:53:00,64.0,34.9,29.28,SE,135,0.0,4.7,34,0.00,,,0.00,LWC V2.10 B1813,2013-04-08 20:53:00,
2013-04-08 14:58:00,64.2,35.1,29.27,SSW,202,0.0,0.0,34,0.00,,,0.00,LWC V2.10 B1813,2013-04-08 20:58:00,
2013-04-08 15:03:00,64.2,35.1,29.27,SSW,202,0.0,0.0,34,0.00,,,0.00,LWC V2.10 B1813,2013-04-08 21:03:00,
2013-04-08 15:08:00,63.7,34.6,29.26,NE,45,0.0,0.9,34,0.00,,,0.00,LWC V2.10 B1813,2013-04-08 21:08:00,
2013-04-08 15:13:00,63.1,34.1,29.25,West,270,0.0,0.0,34,0.00,,,0.00,LWC V2.10 B1813,2013-04-08 21:13:00,
2013-04-08 15:18:00,62.8,34.7,29.24,NW,315,0.0,6.9,35,0.00,,,0.00,LWC V2.10 B1813,2013-04-08 21:18:00,
2013-04-08 15:23:00,62.6,34.3,29.24,West,270,0.0,1.8,35,0.00,,,0.00,LWC V2.10 B1813,2013-04-08 21:23:00,
2013-04-08 15:28:00,62.6,34.3,29.24,WSW,247,0.0,0.0,35,0.00,,,0.00,LWC V2.10 B1813,2013-04-08 21:28:00,
2013-04-08 15:33:00,62.4,34.2,29.24,NW,315,0.0,0.0,35,0.00,,,0.00,LWC V2.10 B1813,2013-04-08 21:33:00,
2013-04-08 15:38:00,62.4,34.2,29.24,West,270,0.0,0.0,35,0.00,,,0.00,LWC V2.10 B1813,2013-04-08 21:38:00,
2013-04-08 15:43:00,62.6,34.3,29.24,West,270,4.7,4.7,35,0.00,,,0.00,LWC V2.10 B1813,2013-04-08 21:43:00,
2013-04-08 15:48:00,63.0,34.7,29.24,WNW,292,0.0,0.0,35,0.00,,,0.00,LWC V2.10 B1813,2013-04-08 21:48:00,
2013-04-08 15:53:00,63.3,34.3,29.24,NNE,22,2.7,2.7,34,0.00,,,0.00,LWC V2.10 B1813,2013-04-08 21:53:00,
2013-04-08 15:58:00,63.5,34.4,29.23,West,270,3.6,3.6,34,0.00,,,0.00,LWC V2.10 B1813,2013-04-08 21:58:00,
2013-04-08 16:03:00,63.7,34.6,29.23,WSW,247,0.0,4.0,34,0.00,,,0.00,LWC V2.10 B1813,2013-04-08 22:03:00,
2013-04-08 16:08:00,63.3,34.3,29.23,NW,315,0.0,0.0,34,0.00,,,0.00,LWC V2.10 B1813,2013-04-08 22:08:00,
2013-04-08 16:13:00,63.1,34.1,29.23,West,270,0.0,0.0,34,0.00,,,0.00,LWC V2.10 B1813,2013-04-08 22:13:00,
2013-04-08 16:18:00,62.4,33.5,29.24,NNE,22,0.0,0.0,34,0.00,,,0.00,LWC V2.10 B1813,2013-04-08 22:18:00,
2013-04-08 16:23:00,61.3,33.2,29.26,NE,45,4.5,4.5,35,0.00,,,0.00,LWC V2.10 B1813,2013-04-08 22:23:00,
2013-04-08 16:28:00,59.4,32.9,29.27,ENE,67,6.7,6.7,37,0.00,,,0.00,LWC V2.10 B1813,2013-04-08 22:28:00,
2013-04-08 16:33:00,57.7,33.6,29.27,NNE,22,6.7,7.6,40,0.00,,,0.00,LWC V2.10 B1813,2013-04-08 22:33:00,
2013-04-08 16:38:00,56.8,33.3,29.27,NE,45,6.3,6.3,41,0.00,,,0.00,LWC V2.10 B1813,2013-04-08 22:38:00,
2013-04-08 16:43:00,55.8,33.5,29.28,NE,45,14.1,14.1,43,0.00,,,0.00,LWC V2.10 B1813,2013-04-08 22:43:00,
2013-04-08 16:48:00,54.3,33.3,29.29,NNE,22,7.2,11.6,45,0.00,,,0.00,LWC V2.10 B1813,2013-04-08 22:48:00,
2013-04-08 16:53:00,53.8,33.9,29.29,North,0,8.1,8.1,47,0.00,,,0.00,LWC V2.10 B1813,2013-04-08 22:53:00,
2013-04-08 16:58:00,53.4,33.6,29.29,NNE,22,7.8,7.8,47,0.00,,,0.00,LWC V2.10 B1813,2013-04-08 22:58:00,
2013-04-08 17:03:00,52.5,33.9,29.29,North,0,11.6,11.6,49,0.00,,,0.00,LWC V2.10 B1813,2013-04-08 23:03:00,
2013-04-08 17:08:00,52.3,33.7,29.30,NE,45,15.9,15.9,49,0.00,,,0.00,LWC V2.10 B1813,2013-04-08 23:08:00,
2013-04-08 17:13:00,51.4,33.5,29.32,NE,45,14.1,14.1,50,0.00,,,0.00,LWC V2.10 B1813,2013-04-08 23:13:00,
2013-04-08 17:18:00,50.5,33.1,29.33,NE,45,6.3,19.0,51,0.00,,,0.00,LWC V2.10 B1813,2013-04-08 23:18:00,
2013-04-08 17:23:00,50.4,33.0,29.33,ENE,67,3.4,3.4,51,0.00,,,0.00,LWC V2.10 B1813,2013-04-08 23:23:00,
2013-04-08 17:29:00,50.0,33.1,29.34,North,0,14.1,14.1,52,0.00,,,0.00,LWC V2.10 B1813,2013-04-08 23:29:00,
2013-04-08 17:34:00,49.6,32.7,29.34,NNE,22,6.5,14.5,52,0.00,,,0.00,LWC V2.10 B1813,2013-04-08 23:34:00,
2013-04-08 17:39:00,49.3,32.8,29.35,NE,45,16.8,16.8,53,0.00,,,0.00,LWC V2.10 B1813,2013-04-08 23:39:00,
2013-04-08 17:44:00,49.1,32.6,29.34,NE,45,3.8,10.1,53,0.00,,,0.00,LWC V2.10 B1813,2013-04-08 23:44:00,
2013-04-08 17:49:00,49.1,33.1,29.35,NNE,22,13.6,13.6,54,0.00,,,0.00,LWC V2.10 B1813,2013-04-08 23:49:00,
2013-04-08 17:54:00,49.1,32.6,29.34,NW,315,1.6,1.6,53,0.00,,,0.00,LWC V2.10 B1813,2013-04-08 23:54:00,
2013-04-08 17:59:00,49.3,32.8,29.35,ENE,67,5.6,6.7,53,0.00,,,0.00,LWC V2.10 B1813,2013-04-08 23:59:00,
2013-04-08 18:04:00,49.1,33.1,29.35,NNE,22,6.9,6.9,54,0.00,,,0.00,LWC V2.10 B1813,2013-04-09 00:04:00,
2013-04-08 18:09:00,48.7,32.8,29.35,NE,45,8.1,8.1,54,0.00,,,0.00,LWC V2.10 B1813,2013-04-09 00:09:00,
2013-04-08 18:14:00,48.0,32.5,29.36,NNE,22,4.5,6.3,55,0.00,,,0.00,LWC V2.10 B1813,2013-04-09 00:14:00,
2013-04-08 18:19:00,47.8,32.4,29.37,NE,45,4.0,4.0,55,0.00,,,0.00,LWC V2.10 B1813,2013-04-09 00:19:00,
2013-04-08 18:24:00,47.3,32.3,29.39,NNE,22,8.9,8.9,56,0.00,,,0.00,LWC V2.10 B1813,2013-04-09 00:24:00,
2013-04-08 18:29:00,46.8,32.3,29.38,ENE,67,6.3,6.7,57,0.00,,,0.00,LWC V2.10 B1813,2013-04-09 00:29:00,
2013-04-08 18:34:00,46.6,32.1,29.38,NNW,337,5.8,5.8,57,0.00,,,0.00,LWC V2.10 B1813,2013-04-09 00:34:00,
2013-04-08 18:39:00,46.4,31.9,29.38,NE,45,6.0,6.0,57,0.00,,,0.00,LWC V2.10 B1813,2013-04-09 00:39:00,
2013-04-08 18:44:00,46.0,31.6,29.39,NE,45,0.0,0.0,57,0.00,,,0.00,LWC V2.10 B1813,2013-04-09 00:44:00,
2013-04-08 18:49:00,45.7,31.7,29.40,NNE,22,7.4,7.4,58,0.00,,,0.00,LWC V2.10 B1813,2013-04-09 00:49:00,
2013-04-08 18:54:00,45.3,31.8,29.38,NE,45,3.1,3.1,59,0.00,,,0.00,LWC V2.10 B1813,2013-04-09 00:54:00,
2013-04-08 18:59:00,45.0,31.1,29.38,ENE,67,2.7,6.5,58,0.00,,,0.00,LWC V2.10 B1813,2013-04-09 00:59:00,
2013-04-08 19:04:00,45.0,31.5,29.39,ENE,67,0.0,0.0,59,0.00,,,0.00,LWC V2.10 B1813,2013-04-09 01:04:00,
2013-04-08 19:09:00,44.4,31.2,29.40,East,90,0.0,0.0,59,0.00,,,0.00,LWC V2.10 B1813,2013-04-09 01:09:00,
2013-04-08 19:14:00,44.2,31.3,29.40,NNW,337,0.0,0.0,60,0.00,,,0.00,LWC V2.10 B1813,2013-04-09 01:14:00,
2013-04-08 19:19:00,43.7,30.7,29.40,ENE,67,5.8,5.8,60,0.00,,,0.00,LWC V2.10 B1813,2013-04-09 01:19:00,
2013-04-08 19:24:00,43.3,30.4,29.40,West,270,0.0,0.0,60,0.00,,,0.00,LWC V2.10 B1813,2013-04-09 01:24:00,
2013-04-08 19:29:00,42.8,30.2,29.40,North,0,0.0,0.0,61,0.00,,,0.00,LWC V2.10 B1813,2013-04-09 01:29:00,
2013-04-08 19:34:00,42.6,30.1,29.41,South,180,0.0,0.0,61,0.00,,,0.00,LWC V2.10 B1813,2013-04-09 01:34:00,
2013-04-08 19:39:00,42.4,29.9,29.42,SE,135,0.0,0.0,61,0.00,,,0.00,LWC V2.10 B1813,2013-04-09 01:39:00,
2013-04-08 19:44:00,42.1,30.0,29.42,ENE,67,0.0,0.0,62,0.00,,,0.00,LWC V2.10 B1813,2013-04-09 01:44:00,
2013-04-08 19:49:00,41.7,30.4,29.42,NNE,22,12.3,12.3,64,0.00,,,0.00,LWC V2.10 B1813,2013-04-09 01:49:00,
2013-04-08 19:54:00,40.8,31.1,29.42,North,0,6.7,6.7,68,0.00,,,0.00,LWC V2.10 B1813,2013-04-09 01:54:00,
2013-04-08 19:59:00,40.3,30.9,29.43,NE,45,5.8,11.4,69,0.00,,,0.00,LWC V2.10 B1813,2013-04-09 01:59:00,
2013-04-08 20:04:00,39.6,30.9,29.43,NE,45,3.8,3.8,71,0.00,,,0.00,LWC V2.10 B1813,2013-04-09 02:04:00,
2013-04-08 20:09:00,38.8,30.7,29.44,NE,45,8.1,8.1,72,0.00,,,0.00,LWC V2.10 B1813,2013-04-09 02:09:00,
2013-04-08 20:14:00,38.3,30.4,29.43,NE,45,7.8,7.8,73,0.00,,,0.00,LWC V2.10 B1813,2013-04-09 02:14:00,
2013-04-08 20:19:00,38.1,30.5,29.43,SSE,157,0.0,0.0,74,0.00,,,0.00,LWC V2.10 B1813,2013-04-09 02:19:00,
2013-04-08 20:25:00,37.9,30.0,29.45,SSE,157,0.0,2.7,73,0.00,,,0.00,LWC V2.10 B1813,2013-04-09 02:25:00,
2013-04-08 20:30:00,37.9,30.0,29.45,SSE,157,0.0,0.0,73,0.00,,,0.00,LWC V2.10 B1813,2013-04-09 02:30:00,
2013-04-08 20:35:00,37.8,30.2,29.46,NE,45,0.0,0.0,74,0.00,,,0.00,LWC V2.10 B1813,2013-04-09 02:35:00,
2013-04-08 20:40:00,37.4,29.9,29.46,SSE,157,1.1,1.1,74,0.00,,,0.00,LWC V2.10 B1813,2013-04-09 02:40:00,
2013-04-08 20:45:00,37.2,29.7,29.46,NE,45,0.0,0.0,74,0.00,,,0.00,LWC V2.10 B1813,2013-04-09 02:45:00,
2013-04-08 20:50:00,37.2,29.7,29.47,NE,45,0.0,0.0,74,0.00,,,0.00,LWC V2.10 B1813,2013-04-09 02:50:00,
2013-04-08 20:55:00,36.9,29.3,29.47,NE,45,0.0,0.0,74,0.00,,,0.00,LWC V2.10 B1813,2013-04-09 02:55:00,
2013-04-08 21:00:00,36.7,29.2,29.47,NE,45,0.0,0.0,74,0.00,,,0.00,LWC V2.10 B1813,2013-04-09 03:00:00,
2013-04-08 21:05:00,36.5,29.0,29.48,NE,45,0.0,0.0,74,0.00,,,0.00,LWC V2.10 B1813,2013-04-09 03:05:00,
2013-04-08 21:10:00,36.3,29.1,29.48,NE,45,0.0,0.0,75,0.00,,,0.00,LWC V2.10 B1813,2013-04-09 03:10:00,
2013-04-08 21:15:00,36.1,28.9,29.48,NE,45,0.0,0.0,75,0.00,,,0.00,LWC V2.10 B1813,2013-04-09 03:15:00,
2013-04-08 21:20:00,36.0,28.8,29.49,NE,45,0.0,0.0,75,0.00,,,0.00,LWC V2.10 B1813,2013-04-09 03:20:00,
2013-04-08 21:25:00,35.6,28.4,29.49,ENE,67,6.3,6.3,75,0.00,,,0.00,LWC V2.10 B1813,2013-04-09 03:25:00,
2013-04-08 21:30:00,35.4,28.5,29.49,NE,45,4.9,4.9,76,0.00,,,0.00,LWC V2.10 B1813,2013-04-09 03:30:00,
2013-04-08 21:35:00,35.2,28.0,29.50,NE,45,4.9,4.9,75,0.00,,,0.00,LWC V2.10 B1813,2013-04-09 03:35:00,
2013-04-08 21:40:00,34.9,27.7,29.50,NE,45,0.0,0.0,75,0.00,,,0.00,LWC V2.10 B1813,2013-04-09 03:40:00,
2013-04-08 21:45:00,34.9,28.0,29.52,NE,45,0.0,0.0,76,0.00,,,0.00,LWC V2.10 B1813,2013-04-09 03:45:00,
2013-04-08 21:50:00,34.7,27.8,29.51,NE,45,0.0,0.0,76,0.00,,,0.00,LWC V2.10 B1813,2013-04-09 03:50:00,
2013-04-08 21:55:00,34.5,27.6,29.51,East,90,0.0,0.0,76,0.00,,,0.00,LWC V2.10 B1813,2013-04-09 03:55:00,
2013-04-08 22:00:00,34.3,27.8,29.50,ENE,67,0.0,0.0,77,0.00,,,0.00,LWC V2.10 B1813,2013-04-09 04:00:00,
2013-04-08 22:01:00,34.3,27.8,29.50,ENE,67,0.0,0.0,77,0.00,,,0.00,LWC V2.10 B1813,2013-04-09 04:01:00,
2013-04-08 22:06:00,34.3,27.8,29.50,ENE,67,0.0,0.0,77,0.00,,,0.00,LWC V2.10 B1813,2013-04-09 04:06:00,
2013-04-08 22:09:00,34.3,27.8,29.51,ENE,67,0.0,0.0,77,0.00,,,0.00,LWC V2.10 B1813,2013-04-09 04:09:00,
2013-04-08 22:14:00,34.3,27.8,29.52,East,90,0.0,0.0,77,0.00,,,0.00,LWC V2.10 B1813,2013-04-09 04:14:00,
2013-04-08 22:19:00,34.2,27.6,29.53,SSE,157,0.0,0.0,77,0.00,,,0.00,LWC V2.10 B1813,2013-04-09 04:19:00,
2013-04-08 22:24:00,33.8,27.2,29.53,SSE,157,0.0,0.0,77,0.00,,,0.00,LWC V2.10 B1813,2013-04-09 04:24:00,
2013-04-08 22:29:00,33.6,27.4,29.52,SE,135,0.0,2.9,78,0.00,,,0.00,LWC V2.10 B1813,2013-04-09 04:29:00,
2013-04-08 22:34:00,33.6,27.4,29.53,NE,45,0.0,0.0,78,0.00,,,0.00,LWC V2.10 B1813,2013-04-09 04:34:00,
2013-04-08 22:39:00,33.4,27.6,29.53,SE,135,0.0,0.0,79,0.00,,,0.00,LWC V2.10 B1813,2013-04-09 04:39:00,
2013-04-08 22:44:00,33.1,27.2,29.53,East,90,0.0,0.0,79,0.00,,,0.00,LWC V2.10 B1813,2013-04-09 04:44:00,
2013-04-08 22:49:00,32.9,27.1,29.52,NE,45,0.0,0.0,79,0.00,,,0.00,LWC V2.10 B1813,2013-04-09 04:49:00,
2013-04-08 22:54:00,32.7,27.2,29.53,SE,135,0.0,0.0,80,0.00,,,0.00,LWC V2.10 B1813,2013-04-09 04:54:00,
2013-04-08 22:59:00,32.4,26.9,29.55,NNE,22,0.0,0.0,80,0.00,,,0.00,LWC V2.10 B1813,2013-04-09 04:59:00,
2013-04-08 23:04:00,32.0,26.6,29.55,ESE,112,0.0,0.0,80,0.00,,,0.00,LWC V2.10 B1813,2013-04-09 05:04:00,
2013-04-08 23:09:00,31.8,25.9,29.55,SSE,157,0.0,0.0,80,0.00,,,0.00,LWC V2.10 B1813,2013-04-09 05:09:00,
2013-04-08 23:14:00,31.1,25.7,29.55,ENE,67,0.0,0.0,80,0.00,,,0.00,LWC V2.10 B1813,2013-04-09 05:14:00,
2013-04-08 23:19:00,30.7,25.3,29.54,NE,45,0.0,0.0,80,0.00,,,0.00,LWC V2.10 B1813,2013-04-09 05:19:00,
2013-04-08 23:24:00,30.2,25.1,29.55,NE,45,0.0,0.0,81,0.00,,,0.00,LWC V2.10 B1813,2013-04-09 05:24:00,
2013-04-08 23:29:00,30.0,24.9,29.55,NE,45,0.0,0.0,81,0.00,,,0.00,LWC V2.10 B1813,2013-04-09 05:29:00,
2013-04-08 23:34:00,29.7,24.5,29.56,ENE,67,0.0,0.0,81,0.00,,,0.00,LWC V2.10 B1813,2013-04-09 05:34:00,
2013-04-08 23:39:00,29.5,24.4,29.56,NE,45,0.0,0.0,81,0.00,,,0.00,LWC V2.10 B1813,2013-04-09 05:39:00,
2013-04-08 23:44:00,29.3,23.9,29.55,NNE,22,0.0,0.0,80,0.00,,,0.00,LWC V2.10 B1813,2013-04-09 05:44:00,
2013-04-08 23:49:00,29.1,23.7,29.56,ENE,67,0.0,0.0,80,0.00,,,0.00,LWC V2.10 B1813,2013-04-09 05:49:00,
2013-04-08 23:54:00,28.9,23.5,29.55,North,0,0.0,0.0,80,0.00,,,0.00,LWC V2.10 B1813,2013-04-09 05:54:00,
2013-04-08 23:59:00,28.8,23.4,29.55,NE,45,0.0,0.0,80,0.00,,,0.00,LWC V2.10 B1813,2013-04-09 05:59:00,